Lid_Strength_Index
0 1 2 4 12 13 16 13 9 9 9 6 6 7 8 7 9 12 2 1 0 0 -0 -0 -1 -1 -1 -1 -1 -2 -2 -2 -2 -2 -2 -2 -2 -2 -2 -2 -2 -2 -2 -2 -2 -2 -2 -2 -2
1 1 4 7 14 17 16 11 11 8 7 6 6 6 8 9 5 4 3 1 0 0 -0 -0 -1 -1 -1 -1 -2 -2 -2 -2 -2 -2 -2 -2 -2 -2 -2 -2 -2 -2 -2 -2 -2 -2 -2 -2 -1
3 2 7 11 14 16 15 10 9 7 6 6 7 5 7 8 5 4 2 1 0 0 -0 -0 -1 -1 -1 -1 -2 -2 -2 -2 -2 -2 -2 -2 -2 -2 -2 -2 -2 -2 -2 -2 -2 -2 -2 -1 -1
5 5 6 13 15 12 11 9 7 7 6 6 6 8 6 4 4 2 1 0 1 0 -0 -0 -1 -1 -1 -1 -2 -2 -2 -2 -2 -2 -2 -2 -2 -2 -2 -2 -2 -2 -2 -2 -2 -2 -1 -1 -1
5 6 13 14 14 11 9 7 7 8 7 6 6 8 8 4 2 2 1 1 1 0 -0 -0 -1 -1 -1 -1 -2 -2 -2 -2 -2 -2 -2 -2 -2 -2 -2 -2 -2 -2 -2 -2 -2 -1 -1 -1 -1
8 8 15 16 13 10 8 6 7 7 7 6 7 7 7 3 3 3 1 1 0 1 -0 -0 1 -0 -1 -1 -1 -2 -2 -2 -2 -2 -2 -2 -2 -2 -2 -2 -2 -1 -1 -1 -1 -1 -1 -1 -1
11 11 14 13 13 11 9 6 7 8 8 7 5 8 7 5 2 2 2 1 0 0 0 -0 -0 0 0 -0 -1 -1 -2 -1 -1 -2 -2 -2 -2 -2 -2 -2 -2 -1 -1 -1 -1 -1 -1 -1 -1
11 11 13 12 13 12 7 7 6 8 8 4 4 9 9 5 3 2 2 1 1 0 0 0 -0 -0 -0 -0 1 0 -1 -1 -1 -1 -1 -1 -1 -1 -1 -1 -1 -1 -1 -1 -1 -1 -1 -1 -1
10 14 15 13 12 11 7 8 7 6 7 6 5 6 5 3 3 3 3 2 2 1 1 0 0 -0 -0 -0 1 1 0 -0 -0 -0 0 0 -1 -0 0 0 -1 -1 -1 -1 -1 -1 -2 -2 -1
12 15 13 10 9 11 9 9 8 8 8 8 7 5 4 3 3 4 4 4 3 2 1 0 0 0 -0 -0 0 0 0 0 -0 -1 -0 -0 -0 0 -0 1 0 -1 -1 -1 -1 -2 -1 0 1
11 14 11 11 10 9 11 11 9 9 10 8 10 8 5 4 4 4 4 3 3 2 1 1 0 0 0 0 0 0 0 0 -0 0 0 0 1 1 1 1 1 1 1 0 -0 -0 1 1 1
13 10 10 9 9 10 11 11 11 10 9 7 8 7 5 5 5 4 4 3 3 2 2 1 0 0 0 0 0 0 1 2 2 1 0 1 2 1 1 1 1 2 0 1 1 3 3 3 2
11 10 8 9 9 9 9 11 11 11 10 9 8 7 6 5 5 4 3 3 2 3 2 1 0 0 1 1 0 1 2 2 2 2 1 1 1 1 1 1 1 1 -0 0 3 4 4 3 3
7 8 9 9 9 9 10 11 11 10 10 10 9 9 7 5 5 4 3 4 3 2 2 2 1 0 0 1 1 1 2 2 3 2 1 1 1 1 1 1 0 1 0 2 4 4 4 4 4
7 10 9 9 9 9 8 12 12 10 9 11 11 10 8 5 4 4 3 3 3 2 2 2 1 0 1 1 1 1 2 2 3 2 3 3 0 1 1 0 2 2 3 3 4 4 5 6 5
10 10 13 10 8 8 9 16 11 9 9 10 11 10 8 7 4 3 3 3 2 2 2 1 1 1 1 1 1 1 2 2 3 2 2 2 1 1 1 1 2 3 5 4 5 5 6 7 7
11 15 13 11 7 8 9 14 10 9 10 10 11 11 8 7 5 4 3 2 2 2 2 2 1 1 1 1 1 1 2 3 3 2 2 2 1 1 2 1 2 4 4 5 5 6 6 8 9
15 14 12 12 9 8 10 12 10 9 9 11 11 12 10 7 5 4 3 2 2 2 1 1 1 1 1 1 1 1 3 3 3 2 2 2 2 2 3 3 3 3 5 5 6 7 7 8 9
11 12 13 11 8 10 10 11 10 11 11 12 11 12 11 10 6 4 3 2 2 2 2 2 2 1 1 1 2 3 3 3 3 1 2 2 2 3 3 3 4 5 6 6 6 7 9 10 10
11 13 13 11 9 10 10 11 10 9 11 11 12 12 11 10 8 4 4 3 3 3 2 2 2 1 1 1 2 2 3 3 3 1 3 2 3 4 4 5 6 6 7 7 7 8 10 11 10
12 13 13 13 11 9 11 13 11 9 10 10 10 10 10 11 8 6 4 4 3 3 2 2 2 1 1 3 3 3 3 3 3 2 4 3 4 5 4 5 6 7 7 8 7 9 9 12 10
15 10 11 13 14 17 11 19 13 11 10 11 11 11 10 11 9 5 4 4 4 3 2 2 2 1 1 2 3 3 3 4 4 4 5 4 5 6 7 6 7 7 8 8 8 8 8 10 11
14 11 12 12 14 15 15 17 15 11 12 12 12 11 11 10 9 5 4 4 3 3 2 2 2 1 1 2 2 2 3 3 4 5 6 7 8 7 8 8 8 8 8 8 8 9 8 9 10
10 12 12 13 14 19 15 16 15 14 12 11 10 11 10 10 9 8 4 3 3 3 2 2 2 2 1 1 2 2 3 3 5 5 7 8 9 10 9 9 9 9 9 8 8 7 7 8 9
11 14 19 20 20 23 14 16 15 11 10 10 11 11 10 10 10 8 7 5 4 4 3 2 2 2 2 2 2 2 3 3 4 5 6 8 10 11 11 10 11 10 10 9 8 8 8 9 11
13 14 20 25 24 22 14 20 15 9 8 8 9 10 10 10 9 8 7 4 4 4 3 3 3 3 2 2 2 2 3 4 4 5 6 7 8 9 10 11 12 12 11 11 11 11 11 11 12
13 16 12 17 19 19 17 14 11 9 9 9 10 10 11 11 10 8 7 4 4 4 3 3 3 3 2 2 2 2 3 4 4 5 5 7 8 10 11 12 13 13 13 12 12 13 13 13 13
12 11 17 16 22 23 18 18 17 13 12 9 11 11 11 10 9 8 6 4 4 3 3 3 3 3 2 2 2 2 3 3 4 6 7 8 10 12 13 13 14 14 14 14 14 14 14 14 14
15 16 15 14 16 21 22 19 12 12 11 11 10 9 10 10 8 6 5 4 4 4 5 5 5 4 3 2 2 3 4 4 5 6 8 10 12 13 14 13 14 14 14 14 14 13 13 14 14
13 16 18 21 19 17 18 18 12 12 10 9 9 8 7 6 6 5 6 6 7 8 9 10 10 10 8 6 6 8 9 9 9 10 12 13 14 15 15 15 14 14 13 13 13 13 14 14 15